Tracking 23610 objects as of 20-Sep-2021
HD Live streaming from Space Station
objects crossing your sky now

STARLINK-1988

Track STARLINK-1988 now!
10-day predictions
STARLINK-1988 is classified as:


NORAD ID: 47584
Int'l Code: 2021-009AN
Perigee: 381.4 km
Apogee: 392.5 km
Inclination: 53.1 °
Period: 92.1 minutes
Semi major axis: 6757 km
RCS: Unknown
Launch date: February 4, 2021
Source: United States (US)
Launch site: AIR FORCE EASTERN TEST RANGE (AFETR)
aabbcc
Your satellite tracking list
Your tracking list is empty




NASA's NSSDC Master Catalog

Two Line Element Set (TLE):
1 47584U 21009AN  21262.90353813 -.00017195  00000-0 -18220-3 0  9996
2 47584  53.0516  90.1758 0008154 302.0704  57.9517 15.62716128 36242
Source of the keplerian elements: AFSPC